DW2932 Weather Reports


Display with metric or nautical units.
time (UTC)temp
F
wind
direction
speed
MPH
gust
MPH
rain 1hr
in
rain 24hr
in
rain mn
in
humidity
%
barometer
mb
20260505130146 53 137 0.0 6.0 0.00 0.00 0.00 78 1012.6
20260505124122 54 137 1.0 3.0 0.00 0.00 0.00 77 1012.4
20260505123120 54 134 0.0 2.0 0.00 0.00 0.00 77 1012.3
20260505122114 54 143 0.0 1.0 0.00 0.00 0.00 76 1012.3
20260505121114 55 131 0.0 5.0 0.00 0.00 0.00 76 1012.3
20260505120112 55 127 0.0 4.0 0.00 0.00 0.00 75 1012.2
20260505115147 55 127 0.0 6.0 0.00 0.00 0.00 75 1012.1
20260505114142 55 164 0.0 5.0 0.00 0.00 0.00 76 1012.1
20260505113144 55 101 0.0 3.0 0.00 0.00 0.00 76 1012.1
20260505112140 55 139 0.0 4.0 0.00 0.00 0.00 76 1012.1
20260505111116 55 129 1.0 8.0 0.00 0.00 0.00 76 1012.0
20260505110114 55 150 0.0 7.0 0.00 0.00 0.00 76 1012.0
20260505102119 57 152 0.0 5.0 0.00 0.00 0.00 73 1011.9
20260505101115 57 153 0.0 4.0 0.00 0.00 0.00 73 1011.8
20260505100111 57 141 0.0 2.0 0.00 0.00 0.00 73 1011.7
20260505095147 57 129 1.0 4.0 0.00 0.00 0.00 73 1011.6
20260505094126 57 137 0.0 1.0 0.00 0.00 0.00 72 1011.4
20260505093124 57 136 1.0 3.0 0.00 0.00 0.00 71 1011.4
20260505092117 57 139 1.0 6.0 0.00 0.00 0.00 71 1011.4
20260505091119 57 133 0.0 6.0 0.00 0.00 0.00 70 1011.4
20260505090116 57 157 0.0 3.0 0.00 0.00 0.00 70 1011.4
20260505085112 58 163 0.0 5.0 0.00 0.00 0.00 70 1011.3
20260505084113 58 160 0.0 3.0 0.00 0.00 0.00 70 1011.2
20260505083129 58 136 0.0 2.0 0.00 0.00 0.00 71 1011.2
20260505082124 58 108 0.0 1.0 0.00 0.00 0.00 71 1011.2
20260505081119 58 134 0.0 0.0 0.00 0.00 0.00 71 1011.1
20260505080121 59 153 0.0 3.0 0.00 0.00 0.00 70 1011.2
20260505075117 59 148 0.0 2.0 0.00 0.00 0.00 71 1011.2
20260505074112 59 139 0.0 1.0 0.00 0.00 0.00 70 1011.0
20260505073114 59 178 0.0 0.0 0.00 0.00 0.00 69 1010.9
20260505072110 59 145 1.0 4.0 0.00 0.00 0.00 69 1010.8
20260505071128 59 140 0.0 1.0 0.00 0.00 0.00 69 1010.7
20260505070124 59 100 0.0 1.0 0.00 0.00 0.00 69 1010.8
20260505065125 60 148 0.0 0.0 0.00 0.00 0.00 69 1010.7
20260505064121 61 148 0.0 1.0 0.00 0.00 0.00 67 1010.6
20260505063119 61 113 0.0 2.0 0.00 0.00 0.00 66 1010.5
20260505062141 62 141 0.0 4.0 0.00 0.00 0.00 65 1010.5
20260505061117 62 141 0.0 2.0 0.00 0.00 0.00 64 1010.4
20260505060115 63 138 0.0 4.0 0.00 0.00 0.00 63 1010.3
20260505055115 63 167 0.0 1.0 0.00 0.00 0.00 63 1010.3
20260505054132 64 146 0.0 7.0 0.00 0.00 0.00 62 1010.3
20260505053128 63 108 0.0 4.0 0.00 0.00 0.00 62 1010.3
20260505052145 64 141 1.0 4.0 0.00 0.00 0.00 61 1010.3
20260505051140 64 136 1.0 5.0 0.00 0.00 0.00 61 1010.3
20260505050118 64 141 1.0 4.0 0.00 0.00 0.00 60 1010.2
20260505041139 67 168 0.0 8.0 0.00 0.00 0.00 56 1009.8
20260505040116 67 132 0.0 4.0 0.00 0.00 0.00 56 1009.8
20260505035116 67 131 0.0 6.0 0.00 0.00 0.00 55 1009.6
20260505034111 67 121 1.0 5.0 0.00 0.00 0.00 55 1009.5
20260505033148 67 120 3.0 8.0 0.00 0.00 0.00 54 1009.4
20260505032123 68 139 0.0 9.0 0.00 0.00 0.00 54 1009.2
20260505031124 68 159 0.0 4.0 0.00 0.00 0.00 53 1009.1
20260505030122 70 116 1.0 5.0 0.00 0.00 0.00 51 1009.0
20260505025120 70 106 0.0 4.0 0.00 0.00 0.00 50 1009.0
20260505024120 71 149 0.0 6.0 0.00 0.00 0.00 49 1008.9
20260505023117 72 103 3.0 7.0 0.00 0.00 0.00 48 1008.9
20260505022114 72 136 0.0 7.0 0.00 0.00 0.00 47 1008.8
20260505021114 73 103 2.0 9.0 0.00 0.00 0.00 44 1008.7
20260505020111 74 135 2.0 8.0 0.00 0.00 0.00 43 1008.5
20260505015128 75 148 0.0 5.0 0.00 0.00 0.00 41 1008.6
20260505014125 76 129 2.0 10.0 0.00 0.00 0.00 39 1008.5
20260505013127 77 134 2.0 9.0 0.00 0.00 0.00 37 1008.6
20260505012124 78 146 2.0 6.0 0.00 0.00 0.00 36 1008.7
20260505011122 78 148 1.0 10.0 0.00 0.00 0.00 38 1008.7
20260505010142 79 135 0.0 6.0 0.00 0.00 0.00 37 1008.7
20260505005119 79 108 1.0 5.0 0.00 0.00 0.00 35 1008.6
20260505004114 79 129 0.0 6.0 0.00 0.00 0.00 35 1008.5
20260505003133 79 141 4.0 12.0 0.00 0.00 0.00 34 1008.6
20260505002110 80 148 3.0 9.0 0.00 0.00 0.00 33 1008.4
20260505001128 80 144 3.0 10.0 0.00 0.00 0.00 31 1008.5
20260505000124 81 143 3.0 9.0 0.00 0.00 0.00 32 1008.3
20260504235124 81 136 1.0 12.0 0.00 0.00 0.00 32 1008.4
20260504234120 82 134 3.0 10.0 0.00 0.00 0.00 30 1008.3
20260504233118 81 117 1.0 12.0 0.00 0.00 0.00 31 1008.2
20260504232133 82 141 1.0 8.0 0.00 0.00 0.00 31 1008.3
20260504231114 82 154 3.0 7.0 0.00 0.00 0.00 30 1008.5
20260504230111 82 131 2.0 7.0 0.00 0.00 0.00 29 1008.5
20260504225129 82 139 4.0 9.0 0.00 0.00 0.00 29 1008.5
20260504224129 82 131 2.0 8.0 0.00 0.00 0.00 30 1008.7
20260504223123 83 142 4.0 10.0 0.00 0.00 0.00 29 1008.7
20260504222120 83 148 2.0 9.0 0.00 0.00 0.00 30 1008.7
20260504221121 83 138 1.0 8.0 0.00 0.00 0.00 27 1008.8
20260504220119 83 155 1.0 7.0 0.00 0.00 0.00 28 1008.8
20260504215116 83 141 3.0 10.0 0.00 0.00 0.00 27 1009.0
20260504214111 83 136 1.0 6.0 0.00 0.00 0.00 29 1009.0
20260504213114 84 153 2.0 9.0 0.00 0.00 0.00 28 1009.0
20260504212151 83 139 2.0 8.0 0.00 0.00 0.00 27 1009.2
20260504211126 83 145 3.0 6.0 0.00 0.00 0.00 27 1009.2
20260504210127 83 115 1.0 5.0 0.00 0.00 0.00 28 1009.2
20260504205124 83 147 0.0 5.0 0.00 0.00 0.00 26 1009.4
20260504204142 83 94 0.0 7.0 0.00 0.00 0.00 26 1009.4
20260504203120 82 147 3.0 9.0 0.00 0.00 0.00 26 1009.5
20260504202120 83 159 3.0 7.0 0.00 0.00 0.00 27 1009.5
20260504201116 82 160 0.0 6.0 0.00 0.00 0.00 27 1009.5
20260504200113 81 92 1.0 5.0 0.00 0.00 0.00 25 1009.7
20260504195112 82 159 3.0 7.0 0.00 0.00 0.00 24 1009.7
20260504194127 82 138 1.0 6.0 0.00 0.00 0.00 26 1009.8
20260504193123 82 148 2.0 5.0 0.00 0.00 0.00 25 1009.8
20260504192118 82 149 1.0 6.0 0.00 0.00 0.00 25 1010.0
20260504191119 82 169 0.0 8.0 0.00 0.00 0.00 28 1010.0
20260504190116 81 156 1.0 3.0 0.00 0.00 0.00 26 1010.0
20260504185113 81 135 0.0 4.0 0.00 0.00 0.00 26 1010.0
20260504184113 81 169 1.0 6.0 0.00 0.00 0.00 32 1010.1
20260504183130 80 148 1.0 8.0 0.00 0.00 0.00 27 1010.1
20260504182127 79 155 1.0 5.0 0.00 0.00 0.00 35 1010.2
20260504181124 78 166 1.0 6.0 0.00 0.00 0.00 38 1010.3
20260504180125 77 174 1.0 4.0 0.00 0.00 0.00 42 1010.2
20260504175122 77 170 0.0 1.0 0.00 0.00 0.00 42 1010.3
20260504174118 75 176 0.0 1.0 0.00 0.00 0.00 42 1010.3
20260504173120 73 160 0.0 2.0 0.00 0.00 0.00 46 1010.4
20260504172117 72 138 0.0 1.0 0.00 0.00 0.00 47 1010.5
20260504171113 70 113 0.0 3.0 0.00 0.00 0.00 57 1010.5
20260504170113 69 147 0.0 2.0 0.00 0.00 0.00 58 1010.5
20260504160117 65 90 0.0 3.0 0.00 0.00 0.00 62 1010.7
20260504151111 57 104 0.0 1.0 0.00 0.00 0.00 78 1010.8
20260504150129 55 110 0.0 0.0 0.00 0.00 0.00 82 1010.7
20260504141119 44 110 0.0 0.0 0.00 0.00 0.00 95 1010.5
20260504140120 43 158 0.0 0.0 0.00 0.00 0.00 95 1010.5